Wind_Speed
4 3 2 2 1 2 4 6 7 8 8 11 13 13 13 13 13 13 15 16 15 16 16 16 16 17 18 19 20 20 20 20 21 22 22 22 22 23 23 24 25 26 27 26
4 4 3 2 2 4 6 8 9 9 9 11 12 12 11 12 14 15 16 16 16 17 17 17 17 18 19 20 20 21 21 21 22 23 23 23 23 23 22 24 25 27 27 26
3 5 5 4 4 4 6 7 9 11 11 12 13 12 12 13 14 16 17 17 17 18 18 19 20 20 20 21 20 21 21 22 22 22 23 24 23 23 23 24 25 26 25 25
4 5 6 6 5 6 7 8 10 10 11 12 13 14 14 14 15 16 17 18 18 18 19 20 20 20 20 20 19 20 21 21 22 22 23 23 23 23 24 25 26 26 26 26
5 6 6 6 6 7 8 9 11 11 12 13 13 14 14 14 15 16 17 18 19 19 20 20 21 20 20 20 19 20 21 22 22 22 22 22 23 24 24 25 25 26 26 26
6 7 7 7 8 10 10 11 12 12 13 13 13 15 14 14 15 16 17 19 20 20 20 21 21 22 21 20 20 21 22 23 23 23 23 23 23 23 24 24 25 26 25 25
7 7 8 9 10 10 11 12 13 13 13 13 13 14 15 16 16 17 17 19 20 20 20 21 23 22 21 21 21 21 21 22 23 23 24 23 22 22 23 24 24 25 24 22
9 9 10 12 12 12 12 12 13 14 14 14 15 16 16 16 17 17 17 18 19 21 21 21 23 22 21 21 21 20 21 22 22 23 23 23 22 22 23 23 24 23 22 22
12 11 12 13 13 14 14 14 14 15 15 15 17 18 17 16 17 18 18 19 19 21 21 21 22 22 20 19 20 20 21 23 23 23 22 22 22 23 23 23 23 22 21 21
13 12 12 13 13 13 14 14 15 15 16 16 17 18 18 17 18 18 19 20 20 20 21 21 21 21 21 21 20 20 20 22 23 23 22 22 23 23 23 23 22 21 21 21
14 13 13 13 13 14 14 15 16 16 16 17 18 18 18 18 18 19 19 20 20 20 20 20 21 21 21 21 21 20 20 21 22 22 22 22 23 23 23 22 21 21 21 20
14 14 14 13 14 14 14 14 15 16 17 17 18 19 18 18 18 19 19 19 20 21 22 22 22 20 19 20 20 20 20 21 21 21 21 22 22 22 21 21 22 21 20 20
15 15 15 13 14 14 14 14 15 17 18 18 18 19 19 19 20 20 21 21 22 22 21 21 21 20 20 20 20 21 21 21 21 20 21 21 21 21 20 20 20 21 20 20
16 16 16 16 15 15 15 14 15 16 17 17 17 18 19 19 20 21 21 22 22 22 21 20 21 20 21 22 21 21 22 21 21 21 21 21 21 20 20 19 20 20 19 19
16 17 16 16 16 17 17 16 15 15 17 17 17 17 18 18 18 20 20 21 21 21 21 20 20 21 21 22 22 22 22 22 22 21 20 21 20 19 19 19 19 18 18 18
17 17 17 18 18 18 18 17 17 16 16 17 18 18 18 18 19 20 21 20 20 20 20 20 20 21 21 22 21 21 22 22 21 20 19 18 18 18 18 18 18 17 17 17
17 18 19 20 19 19 19 18 18 18 18 18 18 19 19 19 20 19 19 20 20 20 21 21 21 21 21 21 22 22 22 21 20 19 18 18 18 18 17 17 17 16 16 16
18 19 20 20 20 20 20 19 19 19 19 19 19 20 20 20 20 19 19 20 21 21 21 21 21 20 21 21 22 22 22 20 19 18 18 18 18 18 17 17 16 16 16 16
19 19 20 21 21 21 20 20 20 20 19 20 20 21 21 21 20 20 21 21 22 21 21 20 20 21 21 21 22 21 20 18 18 18 17 17 17 16 16 16 16 15 16 15
19 20 22 22 23 23 22 22 21 21 21 21 21 22 22 22 21 20 21 21 21 20 20 20 20 20 21 21 20 19 18 17 16 16 16 16 16 15 15 15 15 15 15 14
20 21 22 23 23 23 23 23 22 23 22 21 21 22 23 22 21 20 21 21 20 20 20 20 20 19 20 19 19 18 16 16 16 16 15 15 14 14 13 13 14 14 14 13
23 24 24 23 23 22 23 23 23 22 22 21 22 22 21 21 21 20 20 19 19 19 20 19 18 19 19 18 18 18 17 16 15 15 14 13 13 13 12 12 12 12 12 13
23 25 25 25 24 23 23 23 22 22 22 22 22 21 21 21 21 20 19 18 18 18 18 18 17 18 17 17 17 17 16 15 14 14 13 13 12 12 11 11 11 11 11 11
24 24 24 24 23 22 23 22 22 22 22 22 21 20 21 20 19 19 18 17 17 16 16 16 16 16 15 15 16 15 14 14 14 13 12 12 11 11 10 10 9 10 10 10
24 24 23 23 22 22 22 22 22 22 21 20 19 19 19 19 19 18 18 17 17 17 16 16 15 14 13 13 13 13 13 13 12 12 11 11 10 10 8 8 8 8 9 10
22 23 24 23 22 22 22 21 21 21 20 19 19 19 18 19 18 17 17 16 15 15 15 14 14 14 13 12 11 11 11 11 10 9 9 9 9 8 7 7 7 8 9 10
Wind_Direction
88 84 88 124 207 258 257 269 265 267 266 268 273 276 282 286 285 288 289 286 285 289 292 292 289 291 293 296 298 298 301 302 301 303 303 303 302 301 299 298 300 300 300 299
68 47 35 34 347 305 292 283 282 278 269 266 266 271 273 280 282 283 285 284 285 285 289 292 292 292 295 297 297 299 300 301 301 301 302 302 303 302 300 301 303 302 301 300
37 6 357 355 342 320 298 290 287 281 274 268 268 270 272 278 281 287 291 291 288 286 289 291 291 296 299 300 299 300 302 302 302 303 304 305 303 302 303 302 302 303 303 302
20 355 339 335 330 321 303 288 284 287 277 273 273 273 278 286 289 294 298 298 295 292 293 295 294 294 301 301 299 301 304 304 305 305 305 304 304 304 306 305 303 304 302 300
356 336 323 323 319 314 305 294 290 290 283 277 277 280 283 291 298 298 298 298 295 294 293 293 295 296 301 299 297 300 302 304 304 303 304 304 305 305 306 306 306 307 306 303
340 334 320 311 313 314 310 304 299 292 289 282 279 280 284 293 297 296 297 297 295 293 293 293 296 299 301 298 297 298 300 302 303 303 304 304 305 306 306 306 307 309 308 306
331 328 315 306 304 302 302 301 299 293 286 285 284 284 288 295 298 297 299 300 297 293 294 296 299 299 300 296 296 297 297 299 301 301 303 303 305 305 306 307 308 309 310 308
333 323 313 307 300 299 299 299 297 295 292 289 285 287 290 295 297 301 303 302 297 296 298 298 303 301 303 298 296 296 296 298 300 302 303 305 307 305 305 307 309 311 311 309
326 324 319 314 309 304 299 296 293 294 294 292 289 291 292 298 300 300 302 301 299 299 301 301 304 301 303 300 294 296 297 298 300 304 305 304 305 305 305 306 308 309 311 310
326 325 323 318 312 306 299 297 296 296 298 295 296 297 295 296 297 297 298 301 300 300 300 303 304 302 302 306 305 303 303 303 302 304 305 305 304 303 304 304 306 308 310 310
323 324 325 322 317 310 304 301 301 302 302 299 298 298 301 298 298 299 297 299 300 301 303 305 305 303 304 305 305 305 306 306 306 306 305 305 306 302 302 304 304 306 308 309
318 321 324 326 321 315 311 305 304 306 305 301 297 301 304 303 302 301 300 299 300 304 306 305 305 305 306 306 306 306 306 307 308 306 307 308 308 308 304 303 303 303 305 305
318 318 319 320 319 316 315 308 306 309 308 305 303 305 307 304 304 305 305 303 301 302 303 303 304 304 305 307 308 307 305 306 307 307 307 308 309 310 308 306 306 304 303 304
316 316 317 319 321 318 318 313 309 309 312 312 309 308 306 303 303 306 307 306 303 302 303 302 305 306 306 307 307 306 307 307 307 306 307 307 307 309 310 309 308 307 305 306
313 311 312 313 314 316 318 318 316 312 314 312 312 308 311 309 305 306 308 309 307 304 304 305 306 308 309 308 306 305 307 307 306 306 308 309 308 309 310 309 309 309 308 308
317 312 310 311 312 312 313 316 315 312 310 310 309 309 311 312 309 306 307 308 307 305 303 306 307 306 307 308 306 306 307 307 305 305 307 310 310 310 309 308 308 310 310 310
317 311 308 308 311 312 311 311 311 309 307 307 308 310 310 309 308 307 307 307 305 305 304 304 307 308 308 308 308 308 310 310 308 308 308 309 309 307 307 308 307 308 309 308
314 312 310 310 310 311 312 310 309 307 306 307 308 309 309 309 307 306 307 308 309 308 305 303 305 308 308 308 309 309 310 309 309 309 308 309 309 307 306 306 306 306 306 307
315 315 314 313 311 311 308 308 308 306 304 306 306 306 308 308 306 306 305 306 307 306 305 303 304 307 309 310 311 311 310 309 310 311 311 311 309 308 307 306 305 306 306 307
313 313 312 311 310 311 309 307 308 307 306 305 304 304 305 306 302 302 303 303 304 305 304 304 304 306 308 310 310 310 311 311 311 311 312 311 310 308 308 308 308 309 312 312
313 313 312 312 311 310 308 307 308 308 307 304 304 303 304 303 304 303 303 304 303 303 304 306 306 306 307 308 308 309 312 312 310 309 311 313 313 311 310 310 309 309 311 312
312 312 312 311 311 311 311 308 307 306 303 302 303 302 303 303 306 307 304 303 302 302 302 303 303 302 303 305 307 309 310 310 309 311 314 316 314 312 312 314 313 311 309 310
309 311 310 310 309 309 308 307 306 305 302 302 301 299 300 303 306 305 303 301 301 301 300 300 302 302 304 304 307 309 310 308 308 311 314 316 315 317 314 312 314 316 314 315
309 310 310 309 309 308 307 305 304 304 302 302 301 299 300 303 304 303 303 300 298 299 299 299 301 303 306 307 307 308 309 309 308 309 312 317 319 318 316 314 318 321 323 326
309 309 307 306 308 307 306 304 303 303 302 300 300 300 302 303 302 301 301 298 296 297 299 299 297 299 304 309 310 309 308 308 309 312 315 317 319 320 323 324 326 328 331 333
307 306 306 307 306 306 305 304 304 304 304 300 298 298 301 303 302 300 299 298 295 296 299 299 299 298 301 306 307 308 310 311 313 318 322 325 327 328 330 331 331 333 337 338
Height
5859 5860 5859 5858 5858 5858 5858 5858 5859 5859 5859 5858 5858 5857 5857 5857 5857 5856 5856 5855 5854 5852 5851 5850 5849 5848 5846 5845 5843 5842 5840 5838 5835 5832 5830 5827 5825 5823 5820 5817 5814 5811 5808 5805
5860 5858 5858 5856 5856 5856 5856 5856 5856 5856 5856 5855 5855 5854 5854 5854 5853 5853 5852 5851 5849 5849 5847 5846 5844 5843 5842 5840 5839 5837 5835 5833 5830 5827 5825 5822 5820 5817 5814 5812 5808 5805 5802 5799
5858 5858 5857 5856 5855 5855 5854 5854 5853 5853 5852 5852 5852 5852 5851 5851 5850 5849 5848 5847 5846 5845 5843 5842 5841 5839 5837 5836 5834 5832 5830 5827 5825 5822 5819 5817 5814 5812 5809 5806 5803 5799 5796 5792
5857 5856 5856 5855 5854 5853 5852 5851 5850 5849 5849 5849 5849 5848 5848 5847 5847 5846 5844 5843 5841 5840 5839 5838 5836 5834 5832 5831 5829 5827 5825 5822 5820 5817 5814 5811 5808 5806 5804 5800 5797 5793 5790 5787
5857 5855 5854 5853 5852 5850 5849 5848 5847 5847 5846 5846 5846 5845 5845 5844 5843 5842 5840 5838 5837 5836 5834 5832 5830 5828 5827 5825 5823 5821 5819 5817 5815 5812 5809 5806 5804 5801 5798 5794 5791 5787 5784 5780
5856 5854 5853 5851 5850 5848 5846 5846 5845 5844 5844 5843 5843 5842 5841 5840 5839 5837 5835 5833 5832 5830 5829 5827 5825 5823 5820 5818 5818 5816 5814 5812 5809 5806 5804 5801 5798 5795 5792 5789 5785 5781 5778 5774
5854 5853 5851 5849 5847 5847 5845 5844 5843 5841 5840 5840 5840 5838 5838 5836 5834 5832 5830 5828 5826 5825 5824 5822 5819 5817 5815 5813 5812 5810 5808 5806 5804 5801 5798 5794 5792 5789 5786 5783 5780 5776 5772 5768
5852 5851 5849 5846 5845 5843 5842 5842 5841 5839 5837 5836 5835 5834 5834 5832 5830 5828 5826 5824 5822 5821 5819 5817 5815 5813 5810 5808 5807 5804 5802 5800 5797 5794 5791 5789 5786 5783 5781 5777 5774 5771 5767 5763
5850 5849 5847 5844 5842 5841 5840 5838 5838 5836 5834 5833 5831 5830 5829 5828 5826 5823 5821 5820 5818 5816 5814 5812 5811 5808 5806 5803 5801 5798 5796 5794 5792 5789 5786 5784 5781 5778 5775 5772 5769 5765 5762 5758
5848 5847 5845 5842 5840 5839 5837 5835 5834 5832 5830 5828 5828 5826 5825 5823 5821 5819 5817 5815 5813 5812 5810 5808 5806 5803 5800 5797 5796 5793 5791 5789 5786 5783 5781 5778 5775 5772 5769 5766 5763 5760 5756 5753
5846 5845 5843 5840 5838 5836 5834 5833 5830 5829 5826 5824 5823 5824 5821 5818 5816 5814 5812 5810 5809 5807 5805 5803 5800 5797 5794 5792 5790 5788 5786 5783 5781 5779 5776 5773 5769 5766 5763 5760 5757 5754 5751 5748
5843 5842 5840 5838 5835 5832 5831 5829 5827 5826 5823 5821 5819 5820 5816 5814 5812 5809 5808 5806 5804 5802 5800 5798 5795 5792 5790 5787 5785 5783 5781 5778 5776 5773 5770 5767 5764 5760 5757 5754 5751 5749 5746 5744
5841 5839 5837 5836 5835 5831 5828 5826 5824 5822 5819 5817 5815 5815 5811 5809 5807 5805 5803 5801 5799 5797 5795 5793 5790 5788 5785 5783 5780 5778 5775 5773 5770 5768 5765 5761 5758 5754 5751 5748 5745 5743 5741 5738
5838 5836 5834 5832 5829 5827 5824 5822 5820 5818 5815 5813 5811 5809 5807 5805 5803 5801 5798 5796 5794 5792 5790 5787 5785 5783 5780 5778 5775 5773 5770 5768 5765 5762 5759 5756 5752 5749 5746 5742 5740 5737 5735 5733
5835 5833 5830 5828 5825 5823 5820 5819 5816 5814 5812 5809 5807 5805 5803 5801 5798 5796 5794 5791 5789 5786 5784 5782 5780 5777 5775 5773 5770 5768 5765 5762 5759 5756 5753 5750 5747 5744 5741 5738 5735 5732 5730 5728
5831 5829 5826 5824 5821 5819 5817 5815 5813 5811 5808 5806 5803 5801 5799 5796 5794 5791 5789 5786 5784 5781 5779 5776 5774 5772 5770 5767 5765 5762 5759 5756 5753 5750 5748 5745 5742 5739 5736 5733 5731 5728 5726 5724
5828 5825 5822 5820 5817 5815 5813 5811 5809 5806 5804 5801 5798 5797 5794 5792 5789 5786 5784 5781 5778 5776 5773 5771 5769 5766 5764 5761 5759 5756 5752 5749 5747 5744 5742 5740 5737 5734 5731 5729 5726 5724 5721 5719
5823 5820 5817 5815 5813 5811 5810 5806 5803 5801 5798 5796 5794 5791 5789 5787 5784 5781 5778 5775 5773 5770 5767 5765 5763 5760 5758 5756 5753 5750 5747 5744 5741 5739 5737 5734 5732 5729 5726 5724 5721 5719 5717 5715
5818 5816 5812 5810 5807 5805 5804 5800 5798 5795 5793 5791 5788 5786 5784 5781 5778 5776 5772 5770 5767 5765 5762 5759 5757 5754 5752 5750 5747 5745 5741 5739 5736 5734 5732 5729 5726 5724 5721 5719 5717 5715 5712 5710
5814 5811 5808 5805 5802 5800 5799 5795 5792 5790 5787 5785 5782 5780 5778 5775 5773 5771 5768 5765 5762 5759 5757 5754 5752 5749 5747 5745 5742 5739 5736 5734 5732 5729 5727 5724 5722 5719 5717 5715 5713 5711 5708 5706
5809 5806 5803 5800 5796 5793 5791 5789 5787 5786 5783 5780 5777 5774 5772 5769 5767 5765 5762 5759 5756 5754 5751 5749 5746 5744 5742 5739 5737 5734 5732 5730 5727 5725 5723 5720 5718 5715 5713 5711 5709 5707 5705 5703
5803 5800 5798 5794 5791 5790 5785 5783 5781 5779 5776 5773 5771 5769 5766 5764 5761 5758 5755 5752 5750 5748 5746 5744 5741 5739 5736 5734 5732 5730 5728 5725 5723 5721 5719 5716 5714 5711 5709 5707 5705 5703 5701 5699
5798 5795 5791 5789 5788 5783 5780 5777 5774 5772 5770 5767 5765 5763 5760 5757 5755 5752 5749 5747 5744 5742 5740 5738 5736 5734 5731 5729 5727 5725 5723 5721 5719 5717 5715 5712 5710 5708 5705 5704 5702 5700 5698 5696
5793 5789 5786 5783 5780 5777 5774 5771 5769 5766 5764 5762 5759 5757 5754 5751 5749 5746 5743 5741 5739 5737 5735 5733 5731 5729 5727 5725 5723 5721 5719 5717 5715 5713 5711 5709 5707 5705 5703 5701 5699 5698 5696 5694
5787 5784 5780 5778 5775 5772 5769 5766 5764 5761 5758 5756 5754 5751 5748 5746 5743 5740 5738 5736 5734 5732 5731 5729 5727 5725 5723 5721 5719 5717 5715 5713 5712 5710 5708 5706 5704 5702 5700 5699 5697 5696 5694 5692
5781 5777 5774 5772 5769 5766 5764 5761 5758 5756 5753 5751 5748 5746 5743 5741 5738 5735 5733 5730 5729 5727 5726 5724 5722 5721 5719 5717 5715 5714 5712 5710 5709 5707 5706 5704 5703 5700 5699 5698 5696 5694 5692 5690